AirNav   Air Wisconsin Up To $57,000 Bonus
 
 643 users online  

7CA1 Abraham Ranch Airport
Lucerne Valley, California, USA

GOING TO LUCERNE VALLEY?


FAA INFORMATION EFFECTIVE 26 JANUARY 2023

Location

FAA Identifier: 7CA1
Lat/Long: 34-24-52.9990N 116-37-21.0850W
34-24.883317N 116-37.351417W
34.4147219,-116.6225236
(estimated)
Elevation: 2850 ft. / 869 m (estimated)
Variation: 14E (1985)
From city: 16 miles SE of LUCERNE VALLEY, CA
Time zone: UTC -8 (UTC -7 during Daylight Saving Time)
Zip code: 92285

Airport Operations

Airport use: Private use. Permission required prior to landing
Activation date: 10/1978
Control tower: no
ARTCC: LOS ANGELES CENTER
FSS: RIVERSIDE FLIGHT SERVICE STATION
Attendance: UNATNDD
Wind indicator: yes
Segmented circle: no

Airport Communications

WX AWOS-3 at L35 (15 nm SW): 135.925 (909-585-4033)

Nearby radio navigation aids

VOR radial/distance  VOR name  Freq  Var
HECr184/24.3HECTOR VORTAC112.7015E
DAGr169/32.9DAGGETT VORTAC113.2015E
PSPr331/34.1PALM SPRINGS VORTAC115.5013E
VCVr092/39.4VICTORVILLE VOR/DME109.0514E

Airport Services

Runway Information

Runway 9/27

Dimensions: 4000 x 75 ft. / 1219 x 23 m
Surface: dirt
RUNWAY 9  RUNWAY 27
Traffic pattern: rightleft

Airport Ownership and Management from official FAA records

Ownership: Privately-owned
Owner: HAROLD W ABRAHAM
455 BELLE BREEZE PL
GALLATIN, TN 37066
Phone (516) 609-6019
Manager: JOHN KING
2537 PACIFIC COAST HWY, 221D
TORRANCE , CA 90505
Phone (310) 994-8756
ALTERNATE PH 951-678-6072

Airport Operational Statistics

Aircraft based on the field: 4
Single engine airplanes: 2
Multi engine airplanes: 2
    

Additional Remarks

FOR CD CTC LOS ANGELES ARTCC AT 661-575-2079.

Instrument Procedures

There are no published instrument procedures at 7CA1.

Some nearby airports with instrument procedures:

L35 - Big Bear City Airport (15 nm SW)
KDAG - Barstow-Daggett Airport (28 nm N)
KAPV - Apple Valley Airport (29 nm W)
KREI - Redlands Municipal Airport (33 nm SW)
KPSP - Palm Springs International Airport (36 nm S)
 
Loc | Ops | Rwys | IFR | FBO | Links
Com | Nav | Svcs | Stats | Notes

Luxivair - San Bernardino International Airport
 
Area around 7CA1 (Abraham Ranch Airport)
 
Road maps at: MapQuest Bing Google
 
Aerial photo
WARNING: Photo may not be current or correct
Aerial photo of 7CA1 (Abraham Ranch Airport)
Photo by John King

Do you have a better or more recent aerial photo of Abraham Ranch Airport that you would like to share? If so, please send us your photo.

 
Sectional chart

 
Airport distance calculator
Flying to Abraham Ranch Airport? Find the distance to fly.

From to 7CA1

Sunrise and sunset
Times for 02-Feb-2023
 Local
(UTC-8)
 Zulu
(UTC)
Morning civil twilight06:1814:18
Sunrise06:4514:45
Sunset17:1601:16
Evening civil twilight17:4201:42

Current date and time
Zulu (UTC)  02-Feb-2023 11:20:14
Local (UTC-8)  02-Feb-2023 03:20:14
 
METAR
KL35 
15nm SW 
021055Z AUTO 00000KT 10SM CLR M10/M13 A3031 RMK AO2
KNXP 
24nm E 
021056Z AUTO 28008KT 10SM CLR 04/M11 A3035 RMK AO2 SLP262 T00391111 $
KDAG 
27nm N 
021050Z AUTO 28007KT 10SM CLR 02/M09 A3029 RMK AO2 SLP256 T00221094
TAF
KNXP 
24nm E 
0209/0309 30007KT 9999 SKC QNH3032INS TEMPO 0215/0221 VRB05KT BECMG 0221/0223 05006KT 9999 SCT250 QNH3035INS FM030230 14005KT 9999 SCT250 QNH3037INS BECMG 0304/0306 27003KT 9999 SCT250 QNH3037INS T03/0214Z T17/0221Z
KDAG 
27nm N 
020542Z 0206/0306 VRB05KT P6SM SCT250
NOTAMs
Click for the latest NOTAMs
NOTAMs are issued by the DoD/FAA and will open in a separate window not controlled by AirNav.

 

 
 

Would you like to see your business listed on this page?

 If your business provides an interesting product or service to pilots, flight crews, aircraft, or users of the Abraham Ranch Airport, you should consider listing it here.  To start the listing process, click on the button below
 
Add a business
 

Other Pages about Abraham Ranch Airport

Update a link
 
Copyright © AirNav, LLC. All rights reserved. Privacy Policy  Contact